TimeCST,TemperatureF,Dew PointF,Humidity,Sea Level PressureIn,VisibilityMPH,Wind Direction,Wind SpeedMPH,Gust SpeedMPH,PrecipitationIn,Events,Conditions,WindDirDegrees,DateUTC
12:15 AM,29.3,27.9,94,29.73,2.5,NNE,3.5,-,N/A,,Overcast,30,2013-12-29 06:15:00
12:35 AM,29.7,28.2,94,29.73,2.5,NNE,3.5,-,N/A,,Overcast,20,2013-12-29 06:35:00
12:55 AM,29.8,28.4,94,29.73,2.5,NNE,5.8,-,N/A,,Overcast,20,2013-12-29 06:55:00
1:15 AM,30.2,28.8,94,29.74,3.0,North,5.8,-,N/A,,Overcast,10,2013-12-29 07:15:00
1:35 AM,30.6,29.1,94,29.74,3.0,NE,4.6,-,N/A,,Overcast,40,2013-12-29 07:35:00
1:55 AM,31.1,30.0,96,29.73,3.0,NNE,10.4,-,N/A,,Overcast,20,2013-12-29 07:55:00
2:15 AM,32.0,30.9,96,29.74,2.0,NNE,10.4,-,N/A,,Overcast,30,2013-12-29 08:15:00
2:35 AM,31.6,30.4,95,29.75,5.0,NNE,21.9,26.5,N/A,,Overcast,20,2013-12-29 08:35:00
2:55 AM,29.7,27.1,90,29.78,10.0,NNE,21.9,28.8,N/A,,Overcast,20,2013-12-29 08:55:00
3:15 AM,28.9,24.6,84,29.79,10.0,NNE,18.4,23.0,N/A,,Overcast,20,2013-12-29 09:15:00
3:35 AM,28.6,23.9,83,29.80,10.0,NE,17.3,20.7,N/A,,Overcast,40,2013-12-29 09:35:00
3:55 AM,28.2,23.5,83,29.82,10.0,North,17.3,23.0,N/A,,Overcast,10,2013-12-29 09:55:00
4:15 AM,27.5,22.6,82,29.83,10.0,NNE,12.7,-,N/A,,Overcast,20,2013-12-29 10:15:00
4:35 AM,27.0,21.0,78,29.84,10.0,North,15.0,-,N/A,,Overcast,10,2013-12-29 10:35:00
4:55 AM,26.6,20.3,77,29.84,10.0,North,16.1,19.6,N/A,,Overcast,10,2013-12-29 10:55:00
5:15 AM,25.3,18.9,76,29.86,10.0,NNE,18.4,23.0,N/A,,Overcast,20,2013-12-29 11:15:00
5:35 AM,24.4,18.3,78,29.87,10.0,North,17.3,21.9,N/A,,Overcast,360,2013-12-29 11:35:00
5:55 AM,23.9,18.5,80,29.89,10.0,NNW,11.5,-,N/A,,Overcast,340,2013-12-29 11:55:00
6:15 AM,23.0,15.3,72,29.91,10.0,North,18.4,-,N/A,,Overcast,350,2013-12-29 12:15:00
6:35 AM,22.1,13.8,70,29.92,10.0,North,16.1,24.2,N/A,,Overcast,360,2013-12-29 12:35:00
6:55 AM,21.2,13.3,72,29.93,10.0,North,18.4,23.0,N/A,,Overcast,10,2013-12-29 12:55:00
7:15 AM,20.5,11.3,68,29.94,10.0,North,12.7,23.0,N/A,,Overcast,350,2013-12-29 13:15:00
7:35 AM,20.1,11.1,68,29.96,10.0,North,16.1,21.9,N/A,,Overcast,350,2013-12-29 13:35:00
7:55 AM,19.4,10.4,68,29.96,10.0,North,12.7,19.6,N/A,,Overcast,350,2013-12-29 13:55:00
8:15 AM,18.5,8.4,65,29.97,10.0,NNW,15.0,27.6,N/A,,Overcast,340,2013-12-29 14:15:00
8:35 AM,18.1,8.4,66,29.97,10.0,North,10.4,19.6,N/A,,Overcast,350,2013-12-29 14:35:00
8:55 AM,18.5,9.0,66,29.97,10.0,North,13.8,19.6,N/A,,Overcast,10,2013-12-29 14:55:00
9:15 AM,18.5,8.2,64,29.98,10.0,North,10.4,18.4,N/A,,Overcast,350,2013-12-29 15:15:00
9:35 AM,18.3,8.2,65,29.98,10.0,North,9.2,-,N/A,,Scattered Clouds,360,2013-12-29 15:35:00
9:55 AM,17.4,6.6,63,29.99,10.0,North,12.7,20.7,N/A,,Clear,350,2013-12-29 15:55:00
10:15 AM,17.8,7.0,63,30.00,10.0,NNW,9.2,-,N/A,,Scattered Clouds,340,2013-12-29 16:15:00
10:35 AM,16.7,4.8,60,30.00,10.0,NW,10.4,20.7,N/A,,Mostly Cloudy,320,2013-12-29 16:35:00
10:55 AM,16.5,4.1,58,30.00,10.0,North,12.7,-,N/A,,Scattered Clouds,360,2013-12-29 16:55:00
11:15 AM,18.0,5.5,58,30.00,10.0,NW,15.0,-,N/A,,Scattered Clouds,310,2013-12-29 17:15:00
11:35 AM,16.9,4.5,58,29.99,10.0,North,15.0,18.4,N/A,,Scattered Clouds,350,2013-12-29 17:35:00
11:55 AM,16.9,2.8,54,29.99,10.0,NNW,13.8,17.3,N/A,,Clear,330,2013-12-29 17:55:00
12:15 PM,16.9,2.7,54,29.99,10.0,NW,16.1,20.7,N/A,,Clear,320,2013-12-29 18:15:00
12:35 PM,16.7,0.9,50,30.00,10.0,North,9.2,-,N/A,,Clear,350,2013-12-29 18:35:00
12:55 PM,16.7,1.4,51,29.99,10.0,NW,6.9,-,N/A,,Clear,310,2013-12-29 18:55:00
1:15 PM,16.7,0.9,50,30.00,10.0,NW,11.5,16.1,N/A,,Clear,310,2013-12-29 19:15:00
1:35 PM,17.1,0.3,48,30.00,10.0,North,9.2,-,N/A,,Clear,350,2013-12-29 19:35:00
1:55 PM,16.7,0.1,48,30.00,10.0,WNW,10.4,-,N/A,,Clear,300,2013-12-29 19:55:00
2:15 PM,16.7,-0.4,47,30.01,10.0,WNW,6.9,-,N/A,,Clear,300,2013-12-29 20:15:00
2:35 PM,16.7,-0.4,47,30.01,10.0,NW,12.7,18.4,N/A,,Clear,310,2013-12-29 20:35:00
2:55 PM,16.3,-1.7,45,30.02,10.0,NW,12.7,-,N/A,,Clear,320,2013-12-29 20:55:00
3:15 PM,15.6,-1.7,47,30.03,10.0,NNW,12.7,18.4,N/A,,Clear,340,2013-12-29 21:15:00
3:35 PM,14.7,-1.7,48,30.04,10.0,NNW,10.4,16.1,N/A,,Mostly Cloudy,330,2013-12-29 21:35:00
3:55 PM,14.0,-1.7,50,30.05,10.0,NNW,8.1,-,N/A,,Overcast,340,2013-12-29 21:55:00
4:15 PM,13.6,-2.2,49,30.06,10.0,North,10.4,16.1,N/A,,Overcast,350,2013-12-29 22:15:00
4:35 PM,12.9,-2.7,50,30.06,10.0,NNW,10.4,16.1,N/A,,Overcast,340,2013-12-29 22:35:00
4:55 PM,12.7,-2.4,51,30.07,10.0,NNW,10.4,-,N/A,,Overcast,340,2013-12-29 22:55:00
5:15 PM,12.2,-2.6,52,30.07,10.0,NNW,9.2,-,N/A,,Overcast,330,2013-12-29 23:15:00
5:35 PM,11.8,-3.3,51,30.08,10.0,NNW,8.1,-,N/A,,Overcast,330,2013-12-29 23:35:00
5:55 PM,11.3,-3.5,52,30.08,10.0,NNW,6.9,-,N/A,,Overcast,330,2013-12-29 23:55:00
6:15 PM,10.9,-3.1,53,30.09,10.0,NW,6.9,-,N/A,,Overcast,320,2013-12-30 00:15:00
6:35 PM,10.4,-4.0,52,30.10,10.0,NNW,8.1,-,N/A,,Overcast,330,2013-12-30 00:35:00
6:55 PM,9.1,-4.7,53,30.11,10.0,NNW,10.4,-,N/A,,Scattered Clouds,330,2013-12-30 00:55:00
7:15 PM,8.4,-5.1,54,30.13,10.0,NNW,9.2,-,N/A,,Clear,330,2013-12-30 01:15:00
7:35 PM,7.3,-5.8,55,30.13,10.0,NNW,6.9,-,N/A,,Clear,330,2013-12-30 01:35:00
7:55 PM,6.8,-6.9,54,30.14,10.0,NNW,8.1,-,N/A,,Clear,340,2013-12-30 01:55:00
8:15 PM,6.3,-7.1,54,30.14,10.0,NNW,5.8,-,N/A,,Clear,330,2013-12-30 02:15:00
8:35 PM,5.5,-7.2,56,30.15,10.0,NNW,3.5,-,N/A,,Clear,330,2013-12-30 02:35:00
8:55 PM,4.5,-6.9,59,30.15,10.0,NW,3.5,-,N/A,,Clear,310,2013-12-30 02:55:00
9:15 PM,3.2,-7.1,62,30.15,10.0,WNW,3.5,-,N/A,,Clear,300,2013-12-30 03:15:00
9:35 PM,2.7,-6.9,64,30.16,10.0,WNW,5.8,-,N/A,,Clear,300,2013-12-30 03:35:00
9:55 PM,1.9,-6.9,67,30.16,10.0,WNW,4.6,-,N/A,,Clear,300,2013-12-30 03:55:00
10:15 PM,1.4,-7.1,68,30.17,10.0,West,3.5,-,N/A,,Clear,280,2013-12-30 04:15:00
10:35 PM,0.5,-7.6,69,30.17,10.0,WNW,3.5,-,N/A,,Clear,300,2013-12-30 04:35:00
10:55 PM,-0.6,-8.3,70,30.18,10.0,WNW,5.8,-,N/A,,Clear,300,2013-12-30 04:55:00
11:15 PM,-1.1,-9.0,69,30.19,10.0,WNW,6.9,-,N/A,,Clear,300,2013-12-30 05:15:00
11:35 PM,-1.5,-9.6,69,30.19,10.0,WNW,8.1,-,N/A,,Clear,300,2013-12-30 05:35:00
11:55 PM,-2.4,-10.3,69,30.18,10.0,WNW,8.1,-,N/A,,Clear,300,2013-12-30 05:55:00